Meteo Giornale » Osservazioni meteo Olanda » Lelystad

ore: 06:55 - Osservazioni Meteo Lelystad
Lat. 52° 27' N Lon. 5° 31' E Alt. -6 metri s.l.m.

poco_nuvoloso Europe/Amsterdam

16 °C

Poco Nuvoloso

Temp. 24 Ore

16 °C

23 °C

Nord-Ovest

14.8 Km/h

Dew point 13 °C

Umidità 82 %

Visibilità  10 Km

Il sole sorge alle ore 05:44

Il sole tramonta alle ore 21:44

Data e Ora Cielo e Fenomeni T °C DP °C Um. % Pres. hPa Vis. km Vento km/h
Oggi h: 06:55 poco_nuvoloso Poco Nuvoloso 16 13 82 1020 10 NO 14.8
Oggi h: 06:25 poco_nuvoloso Poco Nuvoloso 16 13 82 1020 10 NO 13
Oggi h: 05:55 nuvoloso Nuvoloso 16 13 82 1020 10 NO 13
Oggi h: 05:25 coperto Coperto 16 13 82 1020 10 NO 16.7
Oggi h: 04:55 molto_nuvoloso Molto Nuvoloso 17 14 82 1020 10 NO 16.7
Oggi h: 04:25 coperto Coperto 17 14 82 1019 10 N/NO 18.5
Oggi h: 03:55 molto_nuvoloso Molto Nuvoloso 17 14 82 1019 10 N/NO 13
Oggi h: 03:25 poco_nuvoloso Poco Nuvoloso 17 14 82 1019 10 NO 22.2
Oggi h: 02:55 molto_nuvoloso Molto Nuvoloso 18 15 82 1019 10 N/NO 16.7
Oggi h: 02:25 coperto_pioggia Pioggia 18 16 88 1019 10 O/NO 13
Oggi h: 01:55 coperto Coperto 18 16 88 1019 10 O/NO 13
Oggi h: 01:25 molto_nuvoloso Molto Nuvoloso 18 15 82 1019 10 O/NO 16.7
Oggi h: 00:55 molto_nuvoloso Molto Nuvoloso 18 15 82 1019 10 O/NO 14.8
Oggi h: 00:25 molto_nuvoloso Molto Nuvoloso 18 15 82 1019 10 O 14.8
Ieri h: 23:55 molto_nuvoloso Molto Nuvoloso 18 15 82 1019 10 O/NO 14.8
Ieri h: 23:25 molto_nuvoloso Molto Nuvoloso 18 15 82 1018 10 O 13
Ieri h: 22:55 molto_nuvoloso Molto Nuvoloso 17 14 82 1018 10 O/NO 13
Ieri h: 22:25 coperto Coperto 18 14 77 1018 10 O/NO 14.8
Ieri h: 21:55 molto_nuvoloso Molto Nuvoloso 18 13 72 1018 10 NO 18.5
Ieri h: 21:25 poco_nuvoloso Poco Nuvoloso 18 14 77 1018 10 NO 20.3
Ieri h: 20:55 poco_nuvoloso Poco Nuvoloso 18 14 77 1017 10 O/NO 16.7
Ieri h: 20:25 molto_nuvoloso Molto Nuvoloso 19 15 77 1018 10 NO 14.8
Ieri h: 19:55 sereno Sereno 19 14 72 1017 10 O/NO 20.3
Ieri h: 19:25 poco_nuvoloso Poco Nuvoloso 19 14 72 1017 10 O/NO 25.9
Ieri h: 18:55 poco_nuvoloso Poco Nuvoloso 20 14 68 1017 10 O/NO 25.9
Ieri h: 18:25 poco_nuvoloso Poco Nuvoloso 21 14 64 1016 10 NO 25.9
Ieri h: 17:55 sereno Sereno 22 15 64 1016 10 NO 25.9
Ieri h: 17:25 coperto Coperto 21 15 68 1016 10 O/NO 22.2
Ieri h: 16:55 coperto Coperto 22 15 64 1016 10 O/NO 24
Ieri h: 16:25 poco_nuvoloso Poco Nuvoloso 22 15 64 1015 10 O/NO 24
Ieri h: 15:55 poco_nuvoloso Poco Nuvoloso 23 16 64 1015 10 O/NO 20.3
Ieri h: 15:25 sereno Sereno 23 17 68 1015 10 O/NO 20.3
Ieri h: 14:55 poco_nuvoloso Poco Nuvoloso 23 17 68 1015 10 O/NO 22.2
Ieri h: 14:25 molto_nuvoloso Molto Nuvoloso 22 17 73 1015 10 O/NO 18.5
Ieri h: 13:55 nuvoloso Nuvoloso 22 17 73 1014 10 O/NO 16.7
Ieri h: 13:25 molto_nuvoloso Molto Nuvoloso 22 17 73 1014 10 O/NO 16.7
Ieri h: 12:55 nuvoloso Nuvoloso 22 17 73 1014 10 O 16.7
Ieri h: 12:25 nuvoloso Nuvoloso 21 17 77 1014 10 O 14.8
Ieri h: 11:55 coperto Coperto 20 17 82 1014 10 O/SO 14.8
Ieri h: 11:25 coperto Coperto 21 17 77 1014 10 O 13
Ieri h: 10:55 coperto Coperto 20 17 82 1014 10 O 11.1
Ieri h: 10:25 coperto Coperto 20 17 82 1014 10 O 13
Ieri h: 09:55 coperto Coperto 20 16 77 1014 10 O/SO 14.8
Ieri h: 09:25 coperto Coperto 20 17 82 1014 10 SO 14.8
Ieri h: 08:55 molto_nuvoloso Molto Nuvoloso 20 17 82 1014 10 SO 13
Ieri h: 08:25 nuvoloso Nuvoloso 19 17 88 1014 10 O/SO 14.8
Ieri h: 07:55 coperto Coperto 19 17 88 1014 10 SO 11.1